Wind_Speed
29 30 30 28 28 28 27 25 22 23 22 23 21 21 14 16 15 13 6 2 2 4 10 14 17 22 27 24 19 14 10 13 10 6 6 16 16 20 24 17 12 12 14 12 7
27 27 28 27 26 26 27 28 27 24 24 24 24 23 21 20 19 16 12 6 2 1 9 14 17 21 26 28 20 13 14 15 11 10 13 16 17 18 22 22 16 16 13 6 7
24 24 24 25 24 25 26 26 28 29 25 25 26 24 24 23 21 19 17 12 6 4 10 15 19 22 31 28 23 17 20 10 6 9 7 18 21 24 24 20 16 17 9 6 10
24 23 23 24 25 26 27 25 26 29 31 27 28 25 24 24 23 23 20 16 11 8 8 14 19 25 30 31 29 23 18 11 1 5 11 24 26 25 16 16 14 10 9 11 10
24 23 23 23 24 27 27 27 26 27 29 32 29 27 23 25 26 25 24 21 15 12 10 13 18 28 33 35 34 30 23 15 9 11 18 25 27 26 19 15 12 8 12 13 11
24 23 23 24 25 24 24 24 24 24 28 30 30 30 25 25 25 27 25 22 20 15 13 19 20 24 28 33 35 31 22 18 25 23 28 26 26 22 8 5 9 9 12 10 11
23 22 23 23 23 23 22 22 22 23 25 28 27 30 29 24 27 25 27 27 23 20 17 19 19 25 26 31 34 33 24 18 17 23 21 24 23 18 3 2 10 10 8 7 8
24 23 23 23 23 23 23 22 20 19 21 25 26 27 31 28 26 26 25 28 28 25 21 19 19 25 28 30 33 31 26 20 15 12 19 23 18 18 5 5 11 15 8 4 3
26 24 25 24 24 25 23 21 19 17 17 21 24 27 27 30 26 25 25 25 29 28 25 21 18 19 30 34 32 33 26 23 17 17 9 8 12 13 11 13 10 14 6 4 2
27 25 25 26 26 26 24 23 20 17 15 17 21 24 25 27 26 25 25 25 26 27 27 22 24 24 28 33 35 29 28 18 17 16 9 9 16 23 24 18 6 13 9 12 5
28 26 26 27 27 25 24 22 21 19 18 15 18 23 25 26 28 28 27 25 23 25 26 28 26 24 24 25 32 26 22 18 18 17 13 10 17 22 25 17 8 14 8 12 12
28 27 27 27 27 26 23 21 21 15 16 15 15 18 23 25 28 27 28 27 23 21 27 28 23 22 24 27 27 28 29 20 20 9 11 11 17 25 27 24 14 9 14 12 22
28 27 27 28 29 24 23 22 20 16 15 16 11 11 17 22 25 28 27 29 27 24 23 24 25 27 26 25 26 24 27 27 20 16 19 14 24 25 27 27 22 9 11 19 25
28 27 27 28 28 25 23 22 18 15 13 12 11 8 11 13 17 28 28 27 24 22 22 22 31 30 30 31 32 31 34 31 25 20 16 19 23 25 28 30 34 29 17 17 23
28 27 27 27 29 24 24 23 17 14 13 12 7 7 9 13 19 20 25 26 23 24 26 23 31 33 36 32 33 34 36 34 28 20 21 26 26 24 26 33 32 25 22 19 13
29 28 27 24 30 25 24 22 17 13 11 10 8 8 7 11 14 22 24 26 25 28 25 26 33 35 32 36 37 33 35 31 32 29 31 29 27 25 27 31 22 17 18 22 22
29 30 28 24 31 27 26 23 17 15 19 12 10 5 4 5 10 15 20 21 22 24 21 24 30 32 34 35 37 34 34 30 36 35 33 25 28 24 21 22 25 21 24 25 24
32 31 29 28 31 27 28 25 18 23 27 23 16 12 4 8 12 12 16 17 19 19 21 24 26 25 24 27 29 27 34 32 34 35 35 33 26 24 26 22 26 28 27 23 29
33 32 29 34 32 29 28 25 19 24 31 29 25 23 19 13 13 12 13 14 16 15 20 21 17 27 28 28 29 27 39 29 34 31 36 33 30 31 27 26 29 26 26 31 32
32 32 32 32 33 30 30 24 22 25 29 33 31 25 23 20 20 16 16 8 14 10 17 20 21 28 28 26 25 26 33 33 30 29 32 31 26 28 25 24 24 27 24 26 32
29 32 30 31 33 32 29 23 24 28 29 31 31 25 25 26 17 22 22 21 20 23 16 18 22 27 28 28 29 34 38 36 29 30 30 34 34 32 28 28 30 29 30 30 27
30 31 28 28 31 29 24 24 29 30 30 30 28 28 28 28 20 24 28 28 24 16 18 20 24 29 30 30 27 33 36 28 31 27 34 39 31 35 32 30 20 34 29 34 25
29 27 27 28 28 25 24 27 31 34 34 32 28 23 27 28 22 22 29 33 33 23 23 25 24 26 29 31 28 39 34 40 39 30 31 35 37 30 27 29 24 25 30 25 22
28 28 28 29 32 31 32 30 30 34 35 34 31 27 23 20 23 24 23 30 35 32 33 25 25 28 28 35 35 35 39 37 38 36 34 38 33 30 35 26 27 33 25 28 31
30 30 25 25 27 29 34 34 32 35 36 36 34 29 22 25 23 22 26 29 33 35 36 35 27 29 35 37 38 38 40 36 44 43 39 37 37 36 31 33 24 30 30 29 29
31 27 23 23 22 22 21 29 32 35 36 36 36 33 25 25 23 21 22 24 30 37 39 41 39 33 35 40 41 46 40 42 42 49 34 40 30 35 32 33 33 33 19 25 31
31 27 26 25 24 25 27 30 35 38 36 36 34 30 29 26 22 18 20 24 28 39 45 45 50 42 36 43 46 49 48 49 48 51 51 41 32 36 36 37 37 33 45 27 34
Wind_Direction
260 263 262 261 258 254 248 247 245 237 235 236 232 224 224 224 227 228 237 187 57 184 175 175 180 171 173 175 153 146 148 177 191 246 284 289 319 330 344 351 346 346 357 15 27
264 260 258 258 254 255 252 244 243 241 235 237 239 228 224 218 223 227 227 219 197 199 179 187 190 177 173 161 162 153 180 159 176 200 254 297 321 318 330 330 345 353 346 18 66
263 257 255 256 256 257 254 249 243 241 236 233 235 237 230 227 221 226 224 223 199 206 183 188 191 177 168 172 168 157 174 148 106 214 304 298 302 303 329 336 351 353 348 11 76
259 256 254 255 256 258 258 255 248 244 240 232 235 237 234 227 223 221 222 224 214 208 207 190 189 183 182 172 167 179 175 135 199 286 267 278 282 292 341 331 348 9 20 23 35
261 258 257 258 259 259 259 259 254 247 243 239 232 237 233 229 224 222 222 222 221 215 213 192 185 188 184 181 180 191 205 181 156 233 259 270 280 294 330 306 339 12 21 19 25
262 260 259 257 259 261 262 262 260 253 244 243 237 234 232 229 227 223 224 223 222 212 209 197 197 201 213 196 192 202 212 228 175 224 243 262 274 285 326 359 9 12 24 3 25
263 259 258 259 259 264 266 264 263 260 243 241 240 234 234 226 228 226 222 223 220 214 214 214 216 209 224 204 201 211 232 235 204 209 253 268 278 288 252 331 353 354 359 1 10
264 263 258 256 256 261 264 267 269 263 249 239 238 233 234 228 226 227 225 223 223 221 217 222 220 215 220 220 211 222 226 224 214 218 245 252 284 292 191 340 350 1 317 350 351
259 260 259 255 256 258 260 265 271 268 255 241 237 233 228 227 225 227 225 224 223 222 219 218 213 224 221 225 225 229 229 222 189 197 210 286 292 320 313 302 348 359 285 318 244
256 257 256 254 253 256 256 261 265 269 265 249 237 235 232 228 221 226 227 225 224 224 220 215 209 203 212 231 232 233 232 221 201 202 186 262 308 312 307 289 29 15 352 285 321
252 254 254 251 250 253 255 259 262 269 269 263 244 235 229 222 225 217 221 221 224 223 221 220 222 221 211 222 228 236 229 201 214 221 240 273 278 303 304 299 1 3 4 360 330
251 251 251 248 247 249 255 255 256 261 273 262 249 237 231 227 220 224 219 217 218 219 220 221 221 221 215 209 213 220 212 201 193 204 258 267 280 289 294 305 311 307 332 352 349
249 248 247 245 245 246 250 252 253 257 262 259 259 236 235 224 213 220 221 219 215 217 223 218 219 216 213 212 214 214 207 176 187 214 219 252 263 272 285 297 305 315 330 343 338
243 244 243 243 241 242 246 247 247 252 256 257 252 236 240 227 211 218 219 221 217 215 218 209 221 216 211 210 210 192 190 186 195 218 224 241 269 263 276 293 294 290 311 332 337
238 238 240 238 237 235 237 239 240 239 244 224 201 225 241 231 215 216 212 218 212 217 217 204 217 218 214 212 215 211 206 201 199 210 237 232 244 248 278 278 277 290 303 325 322
237 233 237 230 237 231 231 235 231 224 206 213 235 247 225 229 228 216 208 216 211 218 213 213 215 218 221 213 214 202 209 217 205 210 224 236 244 252 255 277 275 286 309 296 301
237 231 228 228 237 228 229 231 221 206 192 189 196 199 231 194 222 224 215 214 221 226 219 218 229 230 222 219 218 208 218 217 213 215 227 236 242 253 261 257 259 290 292 277 290
237 232 225 230 231 227 229 227 213 196 195 190 192 200 216 176 216 229 216 218 214 225 220 220 222 232 224 221 228 225 227 215 215 213 227 234 244 251 243 251 273 265 266 265 278
234 232 228 227 230 225 227 222 205 202 210 196 199 187 197 205 208 217 238 213 218 237 233 227 210 217 218 215 233 227 225 206 215 221 227 237 245 250 263 257 270 270 262 266 274
234 229 228 227 229 227 226 217 205 207 214 210 208 212 214 221 219 218 238 215 194 212 235 228 207 211 213 222 236 221 201 206 216 224 226 231 258 260 271 256 241 257 264 265 275
231 223 224 229 229 226 226 211 204 208 221 218 222 234 216 214 232 208 228 234 214 206 206 222 210 207 214 221 214 213 202 210 220 221 233 243 247 267 266 258 241 230 245 260 254
219 218 219 227 223 220 213 203 203 210 221 228 230 228 226 223 231 228 219 226 241 228 241 217 221 203 213 210 215 217 204 213 227 234 248 247 261 254 276 277 285 247 246 263 236
217 215 219 218 225 221 216 213 210 213 218 226 234 238 241 241 231 231 233 229 236 245 241 235 223 210 215 198 211 217 215 228 222 232 241 236 255 256 263 274 275 279 293 268 244
215 219 218 218 219 211 215 216 213 215 220 228 234 229 241 240 236 223 226 236 238 251 247 247 236 215 197 200 214 214 211 216 227 229 235 249 255 257 259 276 279 287 275 266 251
217 223 219 221 223 221 220 213 211 213 220 229 234 239 233 237 236 224 226 235 236 242 246 249 242 229 201 203 215 216 211 225 226 232 229 251 248 251 263 270 285 271 260 252 252
221 221 220 222 225 226 224 214 213 219 225 230 236 243 239 251 258 241 238 227 233 229 236 244 239 237 221 212 218 220 216 220 235 234 237 241 246 242 243 250 257 276 250 291 252
221 222 224 224 220 216 212 215 214 222 227 232 241 241 249 247 248 244 242 238 239 231 236 236 241 239 229 218 215 220 220 222 227 233 234 233 241 254 253 256 269 262 268 266 253
Height
5872 5874 5875 5877 5879 5880 5882 5884 5886 5889 5891 5893 5895 5898 5900 5903 5904 5905 5905 5906 5906 5904 5903 5903 5903 5906 5907 5909 5912 5913 5914 5912 5910 5908 5910 5908 5912 5914 5913 5911 5910 5908 5905 5907 5906
5867 5868 5869 5871 5873 5875 5876 5878 5881 5884 5887 5888 5891 5894 5896 5899 5901 5903 5904 5905 5905 5904 5903 5902 5902 5904 5906 5909 5910 5912 5913 5912 5909 5908 5911 5912 5912 5913 5915 5913 5910 5907 5904 5906 5908
5862 5864 5864 5865 5867 5869 5871 5872 5874 5877 5882 5883 5886 5889 5893 5895 5898 5900 5901 5902 5903 5903 5902 5902 5903 5904 5906 5907 5909 5911 5910 5911 5912 5911 5911 5912 5912 5911 5913 5912 5910 5906 5905 5903 5904
5858 5859 5860 5861 5862 5863 5864 5866 5868 5871 5875 5878 5881 5884 5888 5891 5894 5895 5898 5900 5901 5902 5901 5901 5903 5904 5905 5906 5908 5910 5909 5908 5909 5909 5912 5911 5911 5912 5915 5915 5910 5908 5905 5902 5900
5852 5854 5855 5856 5857 5858 5858 5860 5862 5865 5868 5872 5876 5879 5883 5886 5889 5891 5894 5896 5899 5900 5900 5901 5902 5904 5905 5905 5906 5906 5907 5907 5908 5909 5911 5910 5910 5911 5914 5914 5911 5908 5904 5901 5900
5847 5848 5850 5851 5853 5853 5854 5854 5856 5859 5863 5865 5869 5873 5878 5882 5884 5886 5889 5892 5895 5898 5898 5897 5898 5901 5902 5902 5904 5905 5907 5907 5907 5909 5910 5910 5909 5910 5915 5914 5910 5907 5905 5904 5900
5842 5844 5845 5846 5847 5848 5849 5850 5852 5853 5856 5859 5862 5867 5871 5876 5877 5882 5884 5888 5891 5894 5895 5894 5895 5897 5899 5902 5901 5904 5906 5906 5907 5909 5906 5905 5907 5908 5913 5913 5911 5909 5907 5906 5902
5837 5838 5839 5841 5842 5843 5844 5846 5847 5848 5850 5852 5856 5860 5865 5869 5872 5875 5879 5882 5885 5889 5892 5893 5894 5896 5898 5901 5902 5903 5904 5904 5906 5908 5906 5906 5906 5907 5911 5911 5909 5909 5908 5909 5905
5831 5833 5834 5835 5837 5838 5840 5841 5842 5843 5844 5847 5851 5854 5859 5863 5866 5870 5874 5876 5880 5884 5887 5890 5892 5895 5898 5898 5899 5900 5903 5904 5905 5906 5906 5905 5905 5906 5909 5909 5908 5908 5907 5907 5908
5825 5827 5829 5830 5832 5833 5835 5836 5838 5839 5841 5842 5845 5850 5853 5857 5861 5864 5868 5871 5874 5877 5882 5886 5888 5889 5892 5895 5896 5899 5901 5903 5903 5905 5903 5903 5901 5902 5904 5906 5906 5907 5907 5906 5906
5819 5821 5823 5825 5827 5828 5831 5833 5836 5837 5836 5837 5840 5842 5845 5850 5853 5857 5861 5865 5868 5872 5877 5879 5883 5886 5888 5892 5895 5898 5899 5898 5902 5903 5903 5901 5901 5900 5900 5901 5902 5905 5905 5905 5904
5812 5815 5817 5819 5821 5824 5827 5828 5830 5832 5832 5832 5834 5837 5839 5843 5848 5852 5857 5860 5863 5867 5869 5875 5881 5883 5884 5887 5890 5891 5893 5895 5896 5898 5897 5898 5898 5898 5896 5898 5900 5902 5903 5902 5903
5806 5809 5810 5812 5814 5819 5821 5823 5826 5829 5828 5830 5831 5832 5833 5838 5842 5845 5850 5853 5857 5861 5865 5870 5875 5875 5878 5882 5885 5887 5889 5890 5893 5893 5892 5894 5895 5893 5894 5895 5898 5898 5899 5898 5898
5798 5802 5805 5806 5810 5813 5816 5818 5822 5824 5825 5827 5827 5829 5830 5832 5838 5839 5843 5848 5853 5856 5859 5865 5865 5869 5872 5875 5879 5883 5885 5885 5887 5888 5888 5891 5892 5892 5892 5892 5892 5895 5897 5897 5897
5791 5795 5798 5801 5803 5808 5810 5813 5818 5820 5821 5825 5825 5825 5825 5828 5830 5835 5838 5841 5846 5849 5852 5860 5859 5863 5864 5872 5872 5878 5880 5881 5882 5882 5885 5886 5887 5890 5889 5888 5889 5891 5893 5896 5897
5785 5788 5791 5796 5796 5802 5805 5810 5815 5818 5816 5818 5819 5820 5823 5824 5826 5828 5833 5836 5840 5841 5847 5852 5852 5854 5862 5866 5867 5871 5874 5876 5876 5878 5877 5883 5883 5884 5887 5886 5886 5887 5888 5889 5891
5778 5781 5785 5790 5789 5796 5800 5805 5811 5812 5813 5813 5813 5816 5819 5821 5822 5825 5829 5833 5836 5838 5844 5846 5848 5852 5856 5861 5865 5866 5871 5871 5872 5873 5874 5880 5879 5881 5883 5884 5885 5882 5883 5883 5883
5772 5775 5779 5782 5784 5790 5795 5800 5806 5808 5808 5809 5809 5811 5816 5820 5820 5820 5824 5829 5832 5833 5837 5840 5845 5851 5855 5858 5862 5863 5867 5866 5867 5872 5875 5875 5875 5876 5875 5877 5878 5879 5878 5876 5879
5764 5768 5772 5774 5778 5785 5789 5795 5801 5802 5803 5805 5806 5809 5812 5813 5816 5815 5819 5824 5827 5829 5832 5835 5841 5843 5846 5851 5854 5860 5859 5867 5867 5867 5868 5871 5870 5869 5870 5871 5872 5873 5872 5873 5873
5755 5761 5764 5768 5772 5778 5783 5791 5796 5798 5798 5801 5803 5806 5809 5810 5811 5813 5814 5821 5823 5825 5826 5830 5835 5836 5841 5845 5849 5852 5860 5860 5860 5862 5863 5864 5863 5864 5866 5865 5866 5866 5867 5866 5866
5747 5752 5758 5761 5767 5772 5777 5787 5790 5792 5793 5797 5800 5802 5804 5807 5809 5811 5813 5814 5815 5815 5819 5822 5829 5834 5836 5839 5845 5849 5851 5854 5856 5857 5857 5858 5858 5858 5863 5862 5861 5859 5861 5861 5862
5740 5746 5752 5755 5761 5765 5773 5779 5782 5786 5788 5790 5794 5797 5800 5802 5806 5809 5809 5811 5811 5815 5817 5819 5820 5825 5829 5835 5840 5843 5847 5848 5849 5853 5852 5852 5853 5854 5855 5856 5855 5853 5852 5853 5855
5734 5740 5745 5750 5755 5762 5768 5771 5774 5778 5780 5783 5786 5793 5795 5797 5801 5804 5805 5807 5807 5811 5812 5814 5814 5821 5824 5832 5835 5839 5841 5842 5844 5847 5846 5844 5845 5848 5849 5848 5848 5848 5850 5849 5851
5728 5733 5738 5743 5747 5753 5758 5764 5770 5773 5775 5777 5781 5786 5790 5792 5794 5799 5802 5802 5804 5805 5807 5810 5813 5816 5820 5826 5827 5830 5833 5836 5838 5839 5840 5839 5843 5842 5842 5841 5842 5843 5846 5847 5846
5721 5727 5735 5739 5743 5748 5751 5757 5762 5766 5769 5771 5775 5780 5785 5785 5788 5792 5796 5797 5800 5800 5802 5804 5808 5809 5813 5816 5820 5824 5828 5827 5828 5829 5832 5833 5837 5837 5836 5836 5837 5838 5839 5841 5844
5715 5724 5731 5735 5740 5744 5748 5753 5757 5760 5764 5767 5769 5772 5779 5781 5783 5787 5789 5792 5793 5793 5795 5797 5800 5803 5810 5810 5812 5815 5820 5820 5818 5820 5825 5827 5832 5826 5828 5829 5833 5837 5837 5838 5836
5711 5720 5725 5729 5732 5736 5737 5742 5748 5752 5757 5761 5765 5769 5771 5775 5777 5781 5782 5784 5786 5788 5786 5789 5791 5794 5801 5804 5803 5806 5812 5812 5811 5815 5817 5821 5823 5821 5822 5823 5826 5829 5829 5831 5830